Tracking 23726 objects as of 24-Sep-2021
HD Live streaming from Space Station
objects crossing your sky now

ONEWEB-0312

Track ONEWEB-0312 now!
10-day predictions
ONEWEB-0312 is classified as:


NORAD ID: 49098
Int'l Code: 2021-075Z
Perigee: 542.3 km
Apogee: 573.1 km
Inclination: 87.4 °
Period: 95.7 minutes
Semi major axis: 6928 km
RCS: Unknown
Launch date: August 21, 2021
Source: United Kingdom (UK)
Launch site: TYURATAM MISSILE AND SPACE COMPLEX (TTMTR)
aabbcc
Your satellite tracking list
Your tracking list is empty




NASA's NSSDC Master Catalog

Two Line Element Set (TLE):
1 49098U 21075Z   21266.91668981 -.00991552  00000-0 -74994-1 0  9997
2 49098  87.4298 354.8486 0022235 175.8851 235.3905 15.05298574  3621
Source of the keplerian elements: AFSPC